EW3309 Weather Reports


Display with metric or nautical units.
time (UTC)temp
F
wind
direction
speed
MPH
gust
MPH
rain 1hr
in
rain 24hr
in
rain mn
in
humidity
%
barometer
mb
20260504081544 60 269 0.0 0.0 0.00 0.00 0.00 79 1014.2
20260504044528 61 252 0.0 0.0 0.00 0.00 0.00 74 1013.8
20260504043026 61 244 0.0 0.0 0.00 0.00 0.00 73 1013.8
20260504041525 61 254 0.0 0.0 0.00 0.00 0.00 73 1013.7
20260504040029 61 251 0.0 0.0 0.00 0.00 0.00 72 1013.3
20260504034536 61 255 0.0 0.0 0.00 0.00 0.00 71 1013.3
20260504033026 61 257 0.0 0.0 0.00 0.00 0.00 71 1013.5
20260504031517 62 216 0.0 0.0 0.00 0.00 0.00 70 1013.1
20260504030014 62 233 0.0 0.0 0.00 0.00 0.00 69 1013.1
20260504024513 62 290 0.0 0.0 0.00 0.00 0.00 68 1012.9
20260504023013 62 298 0.0 0.0 0.00 0.00 0.00 67 1013.0
20260504021513 62 304 0.0 0.0 0.00 0.00 0.00 67 1013.1
20260504020012 62 281 0.0 0.0 0.00 0.00 0.00 66 1012.9
20260504014517 62 279 0.0 0.0 0.00 0.00 0.00 65 1012.7
20260504013010 63 295 0.0 0.0 0.00 0.00 0.00 64 1012.8
20260504011510 63 279 0.0 0.0 0.00 0.00 0.00 63 1012.4
20260504010010 64 248 0.0 0.0 0.00 0.00 0.00 62 1012.3
20260504004508 65 259 0.0 0.0 0.00 0.00 0.00 61 1012.0
20260504003008 66 292 0.0 0.0 0.00 0.00 0.00 60 1011.7
20260504001508 68 254 0.0 0.0 0.00 0.00 0.00 57 1011.5
20260504000007 69 247 0.0 0.0 0.00 0.00 0.00 55 1011.3
20260503234508 71 256 0.0 0.0 0.00 0.00 0.00 53 1011.4
20260503233002 71 288 0.0 0.0 0.00 0.00 0.00 53 1011.2
20260503231502 71 250 0.0 0.0 0.00 0.00 0.00 55 1011.4
20260503224557 69 244 0.0 0.0 0.00 0.00 0.00 58 1011.9
20260503223056 68 278 0.0 0.0 0.00 0.00 0.00 59 1011.7
20260503221556 67 298 0.0 0.0 0.00 0.00 0.00 61 1011.8
20260503220058 66 227 0.0 0.0 0.00 0.00 0.00 63 1012.1
20260503214557 66 294 0.0 0.0 0.00 0.00 0.00 63 1012.3
20260503213123 66 271 0.0 0.0 0.00 0.00 0.00 64 1012.3
20260503211618 66 269 0.0 0.0 0.00 0.00 0.00 63 1012.3
20260503210052 67 295 0.0 0.0 0.00 0.00 0.00 63 1012.3
20260503204603 67 256 0.0 0.0 0.00 0.00 0.00 63 1012.2
20260503203051 67 300 0.0 0.0 0.00 0.00 0.00 63 1012.4
20260503201551 68 332 0.0 0.0 0.00 0.00 0.00 64 1012.4
20260503200052 66 296 0.0 0.0 0.00 0.00 0.00 66 1012.7
20260503194549 65 273 0.0 0.0 0.00 0.00 0.00 67 1012.8
20260503193049 65 319 0.0 0.0 0.00 0.00 0.00 68 1012.9
20260503191601 66 298 0.0 0.0 0.00 0.00 0.00 67 1012.8
20260503190051 68 295 0.0 0.0 0.00 0.00 0.00 64 1012.7
20260503184604 71 252 0.0 0.0 0.00 0.00 0.00 59 1012.5
20260503183047 71 180 0.0 0.0 0.00 0.00 0.00 61 1012.6
20260503181543 70 190 0.0 0.0 0.00 0.00 0.00 63 1012.6
20260503180041 70 148 0.0 0.0 0.00 0.00 0.00 65 1012.7
20260503174547 68 173 0.0 0.0 0.00 0.00 0.00 69 1012.9
20260503173033 67 233 0.0 0.0 0.00 0.00 0.00 71 1013.0
20260503171533 66 60 0.0 0.0 0.00 0.00 0.00 74 1013.0